Location: *
(44.1392°N, 4.8079°E)
Time: 07:51:56
(UTC+00:00)

SL-16 R/B - Pass Details

Date: 21 June 2021
Orbit: 842 x 847 km, 71.0° (Epoch: 02 August)

Event Time Altitude Azimuth Distance (km) Brightness Sun altitude
Exits shadow 00:06:01 25° 245° (WSW) 1,632 3.4 -22.2°
Maximum altitude 00:08:51 44° 302° (WNW) 1,157 3.0 -22.2°
Drops below altitude 10° 00:14:16 10° 14° (NNE) 2,472 5.8 -22.0°
Sets 00:16:51 0° 21° (NNE) 3,410 6.7 -22.0°
